This is the latest recevied weather packets stored in our database for station/object KR4ELZ. If no packets are shown the sender has not sent any weather packets the latest 10 day(s).
| Time | Temp. | Humidity | Pressure | Rain* | Wind** | Luminosity | Snow |
|---|---|---|---|---|---|---|---|
| 1777608372 | 11.67° C | 78% | 1015.8 hPa | 0 mm | - | 0 W/m² | - |
| 1777608070 | 11.67° C | 77% | 1015.9 hPa | 0 mm | - | 0 W/m² | - |
| 1777607766 | 11.67° C | 77% | 1015.8 hPa | 0 mm | - | 0 W/m² | - |
| 1777607462 | 12.22° C | 78% | 1015.8 hPa | 0 mm | - | 0 W/m² | - |
| 1777607158 | 11.67° C | 77% | 1015.7 hPa | 0 mm | - | 0 W/m² | - |
| 1777606855 | 12.22° C | 77% | 1015.7 hPa | 0 mm | - | 0 W/m² | - |
| 1777606550 | 12.22° C | 78% | 1015.6 hPa | 0 mm | - | 0 W/m² | - |
| 1777606245 | 12.22° C | 77% | 1015.8 hPa | 0 mm | - | 0 W/m² | - |
| 1777605941 | 12.22° C | 78% | 1015.5 hPa | 0 mm | - | 0 W/m² | - |
| 1777605637 | 12.78° C | 77% | 1015.3 hPa | 0 mm | - | 0 W/m² | - |
| 1777605336 | 12.22° C | 74% | 1015.2 hPa | 0 mm | - | 0 W/m² | - |
| 1777605033 | 12.22° C | 75% | 1015.3 hPa | 0 mm | - | 0 W/m² | - |
| 1777604729 | 12.22° C | 78% | 1015.5 hPa | 0 mm | - | 0 W/m² | - |
| 1777604426 | 12.22° C | 79% | 1016 hPa | 0 mm | - | 0 W/m² | - |
| 1777604126 | 12.22° C | 80% | 1015.8 hPa | 0 mm | - | 0 W/m² | - |
| 1777603823 | 12.22° C | 79% | 1016 hPa | 0 mm | - | 0 W/m² | - |
| 1777603519 | 12.22° C | 81% | 1015.7 hPa | 0 mm | - | 0 W/m² | - |
| 1777603215 | 12.22° C | 80% | 1016 hPa | 0 mm | - | 0 W/m² | - |
| 1777602911 | 12.22° C | 80% | 1015.8 hPa | 0 mm | - | 0 W/m² | - |
| 1777602606 | 12.22° C | 78% | 1016 hPa | 0 mm | - | 0 W/m² | - |
| 1777602301 | 12.22° C | 78% | 1015.8 hPa | 0 mm | - | 0 W/m² | - |
| 1777601997 | 12.22° C | 76% | 1015.8 hPa | 0 mm | - | 0 W/m² | - |
| 1777601692 | 12.78° C | 77% | 1015.8 hPa | 0 mm | - | 0 W/m² | - |
| 1777601388 | 12.78° C | 77% | 1015.7 hPa | 0 mm | - | 0 W/m² | - |
| 1777601084 | 12.78° C | 78% | 1015.7 hPa | 0 mm | - | 0 W/m² | - |
* Rain latest hour (hover to see other rain measurements)
** Current wind speed in m/s (hover to see current wind gust speed)